Regional Weather Roundup
Issued by NWS Sioux Falls, SD

Home | Current Version | Previous Version | Text Only | Print | Product List | Glossary On
Versions: 1 2 3 4 5 6 7 8 9 10 11 12 13 14 15 16 17 18 19 20 21 22 23 24 25 26 27 28 29 30 31 32 33 34 35 36 37 38 39 40 41 42 43 44 45 46 47 48 49 50
000
ASUS43 KFSD 030910
RWRFSD

WEATHER ROUNDUP FOR SE SOUTH DAKOTA/SW MINNESOTA/NW IOWA
NATIONAL WEATHER SERVICE SIOUX FALLS SD
400 AM CDT WED JUN 03 2015

NOTE: "FAIR" INDICATES FEW OR NO CLOUDS BELOW 12,000 FEET WITH NO
SIGNIFICANT WEATHER AND OR OBSTRUCTIONS TO VISIBILITY.


SDZ038>040-050-052>070-031000-
SOUTHEAST SOUTH DAKOTA

CITY           SKY/WX    TMP DP  RH WIND       PRES   REMARKS
BROOKINGS      CLOUDY    64  59  82 S14G20    29.81S
CHAMBERLAIN    CLOUDY    66  56  71 N8        29.79F
HURON          LGT RAIN  70  61  73 W28G36    29.74F
MADISON        FAIR      63  63 100 SW9       29.81S
MITCHELL       LGT RAIN  67  62  84 CALM      29.80R
SIOUX FALLS    CLOUDY    64  59  83 S12       29.81F
WINNER         FAIR      64  55  72 N18G29    29.83F
YANKTON        CLOUDY    64  63  94 CALM      29.80F
$$

MNZ071-072-080-081-089-090-097-098-031000-
SOUTHWEST MINNESOTA

CITY           SKY/WX    TMP DP  RH WIND       PRES   REMARKS
FAIRMONT       CLOUDY    63  52  67 S15G22    29.87S
JACKSON        MOCLDY    63  55  77 S13       29.87R
LUVERNE        CLOUDY    64  59  82 S16       29.84F
MARSHALL       CLOUDY    64  55  72 SW24G30   29.78R
MONTEVIDEO     CLOUDY    64  59  82 SW9       29.79S
PIPESTONE      CLOUDY    63  57  82 SW16      29.83S
REDWOOD FALLS  MOCLDY    65  56  72 S13       29.82S
TRACY          CLOUDY    65  59  79 S21G30    29.79F
WINDOM         CLOUDY    64  55  72 S14       29.85R
WORTHINGTON    CLOUDY    63  54  72 S16       29.85S
$$

IAZ001>003-012>014-020>022-031-032-NEZ013-014-SDZ071-031000-
NORTHWEST IOWA

CITY           SKY/WX    TMP DP  RH WIND       PRES   REMARKS
CHEROKEE       CLOUDY    63  58  86 S10       29.85F
DENISON        CLOUDY    63  61  94 S14G21    29.85F
ESTHERVILLE    CLOUDY    61  55  81 S18       29.87F
LE MARS        CLOUDY    64  59  82 S13G25    29.88R
ORANGE CITY    CLOUDY    61  57  88 W16G24    29.89R
SHELDON        CLOUDY    63  63 100 S15G22    29.83F
SIOUX CITY     TSTM      64  59  83 SW7       29.88R
SPENCER        CLOUDY    63  57  81 S13       29.87F
STORM LAKE     MOCLDY    61  57  88 S14       29.88F
$$

ABBREVIATIONS USED IN REMARKS
   TC - TEMPERATURE IN CELSIUS
  WCI - WIND CHILL INDEX
   HX - HEAT INDEX
  VSB - VISIBILITY



USA.gov is the U.S. government's official web portal to all federal, state and local government web resources and services.